Regional Weather Roundup
Issued by NWS

Home | Current Version | Previous Version | Graphics & Text | Print | Product List | Glossary On
Versions: 1 2 3 4 5 6 7 8 9 10 11 12 13 14 15 16 17 18 19 20 21 22 23 24 25 26 27
000
ASUS45 KBOU 290707
RWRCO

WEATHER ROUNDUP FOR COLORADO
NATIONAL WEATHER SERVICE DENVER/BOULDER CO
100 AM MDT SUN MAY 29 2016

NOTE: "FAIR" INDICATES FEW OR NO CLOUDS BELOW 12000 FEET WITH NO
SIGNIFICANT WEATHER AND/OR OBSTRUCTIONS TO VISIBILITY.

COZ001>005-013-030-031-290800-
...NORTHWEST COLORADO...

CITY           SKY/WX    TMP DP  RH WIND       PRES   REMARKS
CRAIG          FAIR      42  36  79 CALM      30.20S
HAYDEN         FAIR      45  34  65 E8        30.22S
MEEKER         FAIR      42  35  76 NE6       30.21R
MOUNT WERNER   NOT AVBL
STEAMBOAT SPGS FAIR      40  36  84 CALM      30.24R
WALDEN         NOT AVBL
$$

COZ006>008-011-290800-
...WEST CENTRAL VALLEYS...

CITY           SKY/WX    TMP DP  RH WIND       PRES   REMARKS
GRAND JUNCTION FAIR      57  36  45 S6        30.09S
MONTROSE       FAIR      53  33  46 SE8       30.17F
EAGLE          FAIR      45  36  70 SE3       30.27S
RIFLE          FAIR      46  35  65 S6        30.17F
DELTA          FAIR      59  35  40 N7        30.13S
NUCLA          FAIR      52  32  46 SE7       30.19S
$$

COZ017>023-064>068-290800-
...SOUTHWEST COLORADO...

CITY           SKY/WX    TMP DP  RH WIND       PRES   REMARKS
DURANGO        FAIR      47  30  51 N3        30.18S
CORTEZ         FAIR      42  32  67 CALM      30.14S
PAGOSA SPRINGS FAIR      42  31  65 CALM      30.26S
TELLURIDE      MOCLDY    43  29  58 SE6       30.33F
WOLF CREEK PAS FAIR      36  19  51 S3        30.50F
$$

COZ009-010-012-014-032>034-037-058>063-290800-
...CENTRAL COLORADO...

CITY           SKY/WX    TMP DP  RH WIND       PRES   REMARKS
ASPEN          FAIR      39  31  72 S5        30.28S
BUENA VISTA    FAIR      42  29  58 NW8       30.30S
COPPER MTN     NOT AVBL
BERTHOUD PASS  FAIR      30  21  69 W10G18    30.47S WCI  21
COTTONWOOD PAS FAIR      45  27  49 W3        30.37F
GUNNISON       FAIR      43  28  56 N7        30.31R
KREMMLING      FAIR      37  34  87 CALM      30.30R
LEADVILLE      FAIR      28  24  85 CALM      30.37S
SALIDA         FAIR      46  33  59 W7        30.35S
SUNLIGHT       FAIR      41  28  60 CALM      30.43F
WILKERSON PASS FAIR      36  25  64 SW3       30.47S
$$

COZ069>075-290800-
...SAN LUIS VALLEY/SANGRE DE CRISTO MOUNTAINS...

CITY           SKY/WX    TMP DP  RH WIND       PRES   REMARKS
ALAMOSA        MOCLDY    45  38  76 NW6       30.26F
LA VETA PASS   CLOUDY    45  27  49 CALM      30.40F
SAGUACHE       MOCLDY    43  32  65 N7        30.29S
$$

COZ035-036-038>040-290800-
...NORTHERN COLORADO FRONT RANGE...

CITY           SKY/WX    TMP DP  RH WIND       PRES   REMARKS
DENVER INTL AP FAIR      48  42  80 S5        30.15R
DMNS CITY PARK   N/A     53  42  67 SE7       30.15S
AURORA         PTCLDY    50  43  79 S7        30.17S
FRONT RANGE AP NOT AVBL
ERIE MUNI ARPT FAIR      48  41  76 S6        30.14S
BOULDER MUN AP FAIR      52  37  58 CALM      30.14S
CENTENNIAL     FAIR      50  41  71 S8        30.17F
BROOMFIELD     FAIR      50  37  62 W5        30.16F
FORT COLLINS   FAIR      50  43  76 CALM      30.14S
LONGMONT       FAIR      46  40  80 CALM      30.15F
$$

COZ041-046-047-076>085-087-088-290800-
...PIKES PEAK/PALMER DIVIDE AND SOUTHERN FOOTHILLS...

CITY           SKY/WX    TMP DP  RH WIND       PRES   REMARKS
COLO. SPRINGS  MOCLDY    49  40  71 N6        30.22S
A. F. ACADEMY  CLOUDY    45  37  76 N7        30.22F
SCHRIEVER AFB  NOT AVBL
ELLICOTT       FAIR     N/A N/A N/A E8        30.20S
FALCON         FAIR      45  37  73 W3        30.24F
FORT CARSON    MOCLDY    48  40  75 NW7       30.19R
LIMON          FAIR      48  44  86 CALM      30.17F
MONUMENT HILL  FAIR      43  36  75 SW6       30.25F
TRINIDAD       FAIR      49  38  65 W10       30.17S
$$

COZ042>045-048>051-090-091-290800-
...NORTHEAST COLORADO...

CITY           SKY/WX    TMP DP  RH WIND       PRES   REMARKS
GREELEY ARPT   FAIR      50  45  81 CALM      30.13S
AKRON          FAIR      56  41  57 S8        30.11F
BURLINGTON     MOCLDY    61  44  53 VRB7      30.09F
WRAY           FAIR      52  46  82 SW5       30.11R
STERLING       FAIR      48  46  93 N5        30.08F
HOLYOKE        NOT AVBL
FORT MORGAN    FAIR      50  44  80 SW3       30.12S
$$

COZ086-089-092>099-290800-
...SOUTHEAST COLORADO...

CITY           SKY/WX    TMP DP  RH WIND       PRES   REMARKS
PUEBLO         FAIR      54  48  80 W8        30.14S
LA JUNTA       FAIR      61  51  70 N9        30.10S
LAMAR          MOCLDY    59  48  67 CALM      30.07S
SPRINGFIELD      N/A     58  43  57 E10       30.13F
$$




USA.gov is the U.S. government's official web portal to all federal, state and local government web resources and services.